Weather History for KJOT - February, 2014

Change the Weather History Date:

Friday, February 28, 2014

  Actual Average (KLOT) Record (KLOT)
Temperature  
Mean Temperature 15 °F 32 °F  
Max Temperature 32 °F 41 °F 56 °F (2000)
Min Temperature -2 °F 24 °F -8 °F (2015)
Degree Days  
Heating Degree Days 50 33  
Month to date heating degree days 1048  
Since 1 July heating degree days 4728  
Cooling Degree Days 0 0  
Month to date cooling degree days 0  
Year to date cooling degree days 0  
Moisture  
Dew Point 6 °F    
Average Humidity 59    
Maximum Humidity 78    
Minimum Humidity 41    
Precipitation  
Precipitation 0.00 in 0.08 in 0.28 in (2005)
Month to date precipitation 1.78  
Year to date precipitation 3.71  
Snow  
Snow 0.00 in 0.20 in 1.30 in (1994)
Month to date snowfall 6.4  
Since 1 July snowfall 27.4  
Snow Depth -    
Sea Level Pressure  
Sea Level Pressure 30.10 in    
Wind  
Wind Speed 5 mph (SSE)    
Max Wind Speed 16 mph    
Max Gust Speed 21 mph    
Visibility 10 miles    
Events      
T = Trace of Precipitation, MM = Missing Value Source: NWS Daily Summary

Daily Weather History Graph

Daily Weather History Graph

Search for Another Location

Airport or City:

Trip Planner

Search our weather history database for the weather conditions in past years. The results will help you decide how hot, cold, wet, or windy it might be!

Date:

Astronomy

Feb. 28, 2014 Rise Set
Actual Time 6:28 AM CST 5:42 PM CST
Civil Twilight 6:01 AM CST 6:10 PM CST
Nautical Twilight 5:28 AM CST 6:42 PM CST
Astronomical Twilight 4:56 AM CST 7:14 PM CST
Moon 5:43 AM CST (2/28) 5:19 PM CST (2/28)
Length of Visible Light 12h 08m
Length of Day
11h 13m
Waning Crescent, 1% of the Moon is Illuminated
Feb 28
Waning Crescent
Mar 1
New
Mar 8
First Quarter
Mar 16
Full
Mar 23
Last Quarter

Hourly Weather History & Observations

Time (CST) Temp. Windchill Dew Point Humidity Pressure Visibility Wind Dir Wind Speed Gust Speed Precip Events Conditions
12:15 AM -1.3 °F - -6.7 °F 78% 30.21 in 10.0 mi Calm Calm - N/A   Clear
12:35 AM -1.3 °F - -7.1 °F 77% 30.20 in 10.0 mi Calm Calm - N/A   Clear
12:55 AM -1.5 °F - -7.6 °F 75% 30.20 in 10.0 mi Calm Calm - N/A   Clear
1:15 AM -0.8 °F - -7.6 °F 73% 30.20 in 10.0 mi Calm Calm - N/A   Clear
1:35 AM -1.7 °F - -7.4 °F 77% 30.19 in 10.0 mi Calm Calm - N/A   Clear
1:55 AM -0.9 °F - -6.5 °F 77% 30.19 in 10.0 mi Calm Calm - N/A   Clear
2:15 AM -0.9 °F - -6.3 °F 78% 30.19 in 10.0 mi Calm Calm - N/A   Clear
2:35 AM -2.2 °F - -7.6 °F 78% 30.18 in 10.0 mi Calm Calm - N/A   Clear
2:55 AM 0.7 °F - -7.4 °F 69% 30.17 in 10.0 mi Calm Calm - N/A   Clear
3:15 AM 1.2 °F -6.4 °F -7.2 °F 68% 30.18 in 10.0 mi SSE 3.5 mph - N/A   Clear
3:30 AM 2.1 °F - -6.7 °F 67% 30.18 in 10.0 mi Calm Calm - N/A   Clear
3:55 AM 3.2 °F -6.2 °F -6.0 °F 66% 30.18 in 10.0 mi SE 4.6 mph - N/A   Clear
4:15 AM 3.9 °F -6.9 °F -5.1 °F 66% 30.18 in 10.0 mi SE 5.8 mph - N/A   Clear
4:35 AM 4.5 °F -7.6 °F -4.0 °F 68% 30.18 in 10.0 mi SE 6.9 mph - N/A   Scattered Clouds
4:55 AM 4.8 °F -5.8 °F -3.3 °F 69% 30.19 in 10.0 mi SE 5.8 mph - N/A   Overcast
5:15 AM 5.0 °F -6.9 °F -2.4 °F 72% 30.19 in 10.0 mi SE 6.9 mph - N/A   Mostly Cloudy
5:35 AM 4.8 °F -7.1 °F -2.4 °F 72% 30.19 in 10.0 mi SE 6.9 mph - N/A   Scattered Clouds
5:55 AM 5.0 °F -6.9 °F -1.5 °F 75% 30.19 in 10.0 mi SE 6.9 mph - N/A   Clear
6:15 AM 5.9 °F -5.8 °F -0.6 °F 75% 30.19 in 10.0 mi SE 6.9 mph - N/A   Clear
6:35 AM 6.3 °F -8.4 °F -0.2 °F 75% 30.18 in 10.0 mi SE 10.4 mph - N/A   Clear
6:55 AM 6.6 °F -7.1 °F 0.1 °F 75% 30.19 in 10.0 mi SE 9.2 mph - N/A   Clear
7:15 AM 7.2 °F -6.4 °F 0.5 °F 74% 30.19 in 10.0 mi SE 9.2 mph 17.3 mph N/A   Scattered Clouds
7:35 AM 7.9 °F -4.6 °F 1.4 °F 75% 30.20 in 10.0 mi SE 8.1 mph - N/A   Mostly Cloudy
7:55 AM 9.3 °F -6.1 °F 1.8 °F 71% 30.20 in 10.0 mi SE 12.7 mph 17.3 mph N/A   Scattered Clouds
8:15 AM 9.9 °F -3.1 °F 2.3 °F 71% 30.19 in 10.0 mi SSE 9.2 mph 16.1 mph N/A   Mostly Cloudy
8:35 AM 10.9 °F -4.7 °F 2.8 °F 70% 30.18 in 10.0 mi SSE 13.8 mph - N/A   Overcast
8:55 AM 11.7 °F -1.7 °F 3.0 °F 68% 30.19 in 10.0 mi SSE 10.4 mph - N/A   Scattered Clouds
9:15 AM 12.2 °F -1.8 °F 3.0 °F 67% 30.17 in 10.0 mi SE 11.5 mph 17.3 mph N/A   Scattered Clouds
9:35 AM 13.6 °F 0.0 °F 3.4 °F 64% 30.17 in 10.0 mi SSE 11.5 mph - N/A   Scattered Clouds
9:55 AM 14.4 °F 1.6 °F 3.9 °F 63% 30.16 in 10.0 mi SSE 10.4 mph - N/A   Scattered Clouds
10:15 AM 15.6 °F 3.2 °F 4.5 °F 61% 30.16 in 10.0 mi SSE 10.4 mph 18.4 mph N/A   Clear
10:35 AM 17.2 °F 5.2 °F 5.0 °F 59% 30.15 in 10.0 mi SSE 10.4 mph 17.3 mph N/A   Clear
10:55 AM 17.8 °F 5.9 °F 5.0 °F 57% 30.14 in 10.0 mi SSE 10.4 mph 16.1 mph N/A   Clear
11:15 AM 19.2 °F 8.4 °F 5.4 °F 55% 30.14 in 10.0 mi SSE 9.2 mph 19.6 mph N/A   Clear
11:35 AM 20.5 °F 8.6 °F 5.4 °F 52% 30.14 in 10.0 mi SSE 11.5 mph 16.1 mph N/A   Clear
11:55 AM 21.2 °F 10.9 °F 5.7 °F 51% 30.13 in 10.0 mi SSE 9.2 mph - N/A   Clear
12:15 PM 22.6 °F 11.3 °F 6.1 °F 49% 30.11 in 10.0 mi SSE 11.5 mph 17.3 mph N/A   Clear
12:35 PM 24.1 °F 12.5 °F 7.3 °F 49% 30.10 in 10.0 mi SSE 12.7 mph - N/A   Clear
12:55 PM 24.8 °F 13.4 °F 6.4 °F 46% 30.09 in 10.0 mi SSE 12.7 mph 17.3 mph N/A   Clear
1:15 PM 25.9 °F 14.8 °F 7.3 °F 46% 30.08 in 10.0 mi SE 12.7 mph - N/A   Clear
1:35 PM 26.2 °F 15.2 °F 7.7 °F 46% 30.06 in 10.0 mi SSE 12.7 mph 18.4 mph N/A   Clear
1:55 PM 27.0 °F 16.1 °F 8.6 °F 46% 30.05 in 10.0 mi SE 12.7 mph - N/A   Clear
2:15 PM 28.2 °F 17.2 °F 9.3 °F 45% 30.04 in 10.0 mi SE 13.8 mph 19.6 mph N/A   Clear
2:35 PM 28.9 °F 18.6 °F 9.1 °F 43% 30.03 in 10.0 mi SSE 12.7 mph 17.3 mph N/A   Clear
2:55 PM 29.3 °F 17.7 °F 8.2 °F 41% 30.02 in 10.0 mi SSE 16.1 mph 19.6 mph N/A   Clear
3:15 PM 30.2 °F 20.8 °F 9.1 °F 41% 30.02 in 10.0 mi South 11.5 mph 20.7 mph N/A   Clear
3:35 PM 30.2 °F 19.8 °F 9.3 °F 42% 30.01 in 10.0 mi SSE 13.8 mph 19.6 mph N/A   Clear
3:55 PM 30.7 °F 22.0 °F 10.0 °F 42% 30.00 in 10.0 mi SSE 10.4 mph 19.6 mph N/A   Clear
4:15 PM 31.1 °F 20.9 °F 10.6 °F 42% 30.00 in 10.0 mi South 13.8 mph 17.3 mph N/A   Clear
4:35 PM 31.1 °F 23.1 °F 10.9 °F 43% 30.00 in 10.0 mi SSE 9.2 mph - N/A   Clear
4:55 PM 30.9 °F 22.2 °F 11.1 °F 44% 29.99 in 10.0 mi SSE 10.4 mph - N/A   Clear
5:15 PM 30.2 °F 23.4 °F 11.5 °F 46% 29.99 in 10.0 mi SSE 6.9 mph - N/A   Clear
5:35 PM 29.8 °F 23.9 °F 12.2 °F 48% 29.99 in 10.0 mi SSE 5.8 mph - N/A   Clear
5:55 PM 29.3 °F 23.2 °F 12.9 °F 51% 29.99 in 10.0 mi SSE 5.8 mph - N/A   Clear
6:15 PM 29.1 °F 23.0 °F 13.1 °F 51% 29.99 in 10.0 mi SSE 5.8 mph - N/A   Clear
6:35 PM 29.1 °F 24.1 °F 13.8 °F 53% 30.00 in 10.0 mi SSE 4.6 mph - N/A   Clear
6:55 PM 28.9 °F 22.8 °F 14.4 °F 55% 29.99 in 10.0 mi SSE 5.8 mph - N/A   Clear
7:15 PM 29.3 °F 24.3 °F 14.2 °F 53% 30.00 in 10.0 mi SSE 4.6 mph - N/A   Clear
7:35 PM 29.3 °F 24.3 °F 14.5 °F 54% 30.00 in 10.0 mi South 4.6 mph - N/A   Clear
7:55 PM 29.5 °F 23.4 °F 14.7 °F 54% 30.01 in 10.0 mi South 5.8 mph - N/A   Clear
8:15 PM 30.2 °F 24.3 °F 14.9 °F 53% 30.00 in 10.0 mi SSE 5.8 mph - N/A   Clear
8:35 PM 29.8 °F 26.3 °F 15.4 °F 55% 30.01 in 10.0 mi SSE 3.5 mph - N/A   Clear
8:55 PM 30.4 °F 23.6 °F 16.3 °F 56% 30.00 in 10.0 mi South 6.9 mph - N/A   Clear
9:15 PM 31.1 °F 25.4 °F 16.7 °F 55% 30.01 in 10.0 mi South 5.8 mph - N/A   Clear
9:35 PM 32.0 °F 25.6 °F 16.2 °F 52% 30.01 in 10.0 mi South 6.9 mph - N/A   Clear
9:55 PM 32.4 °F 26.9 °F 15.6 °F 50% 30.01 in 10.0 mi South 5.8 mph - N/A   Clear
10:15 PM 32.0 °F 26.4 °F 16.5 °F 53% 30.01 in 10.0 mi South 5.8 mph - N/A   Clear
10:35 PM 32.4 °F 26.0 °F 16.7 °F 53% 30.01 in 10.0 mi South 6.9 mph - N/A   Scattered Clouds
10:55 PM 32.2 °F 26.7 °F 16.9 °F 53% 30.01 in 10.0 mi South 5.8 mph - N/A   Mostly Cloudy
11:15 PM 32.4 °F 26.9 °F 16.9 °F 53% 30.00 in 10.0 mi South 5.8 mph - N/A   Mostly Cloudy
11:35 PM 32.2 °F 26.7 °F 17.2 °F 54% 30.01 in 10.0 mi SSW 5.8 mph - N/A   Mostly Cloudy
11:55 PM 32.0 °F 25.6 °F 17.8 °F 56% 30.00 in 10.0 mi South 6.9 mph - N/A   Mostly Cloudy